Temp
18 18 18 18 18 18 17 17 17 17 17 18 18 19 19 20 20 19 18 17 17 17 17 16 16 16 16 16 16 15 16 16 16
18 18 18 18 18 17 17 17 17 17 17 17 18 19 19 19 19 19 18 17 17 17 16 16 16 16 16 16 16 15 16 16 16
18 18 18 18 17 17 17 17 17 17 17 17 18 19 19 18 18 18 17 17 17 16 16 16 16 16 16 15 15 16 15 15 15
18 18 18 17 17 17 17 17 17 17 17 17 17 18 19 19 18 18 17 17 17 16 16 16 16 15 15 15 15 15 15 15 15
17 17 17 17 17 17 17 17 16 17 17 17 17 18 19 20 18 17 17 17 16 16 16 16 15 15 15 15 15 15 15 14 14
17 17 17 17 18 17 17 16 16 17 17 17 16 18 19 19 19 18 17 16 16 16 15 15 15 15 15 15 15 14 14 14 14
18 17 17 17 17 17 17 16 16 17 16 16 17 18 19 19 19 17 17 16 16 15 15 15 15 15 15 15 14 14 14 14 14
18 16 17 16 16 16 16 16 16 17 18 17 18 19 20 19 19 17 17 16 16 15 15 15 15 15 15 14 14 14 13 13 13
18 17 16 16 17 17 17 17 18 18 18 18 18 19 19 20 19 17 16 16 16 15 15 15 15 15 15 14 13 13 13 13 13
18 18 17 17 18 18 18 18 18 18 18 18 18 19 19 19 18 17 16 16 15 15 15 15 15 15 14 14 13 13 13 13 13
18 17 17 17 17 17 18 18 18 18 18 18 18 18 17 17 16 16 16 15 15 15 15 15 15 14 14 13 13 13 13 12 12
18 17 16 15 16 17 17 18 18 18 18 18 18 18 17 16 16 15 15 15 15 15 15 15 15 14 14 13 13 13 12 12 12
17 16 15 14 15 16 17 17 18 18 18 18 18 18 17 16 15 15 14 15 15 15 15 15 14 14 14 13 13 12 12 12 11
17 15 14 14 15 15 16 16 17 17 17 17 16 17 17 17 16 15 15 15 15 15 15 15 14 14 14 14 13 12 12 11 11
17 16 14 15 15 15 16 16 17 17 17 15 15 15 16 16 16 16 15 15 15 15 15 14 14 14 14 13 13 12 11 11 11
16 16 16 15 15 15 15 15 16 16 15 14 14 15 14 14 15 15 15 16 15 15 15 15 14 14 14 13 13 12 12 11 11
16 16 16 15 15 15 15 15 15 15 15 15 16 15 14 13 13 14 14 14 15 14 15 16 15 15 13 13 13 13 12 11 11
16 16 15 15 15 15 15 15 15 15 15 16 16 16 16 15 14 13 13 13 13 14 14 15 14 14 14 13 13 13 12 12 11
15 15 15 15 15 15 15 14 14 15 14 14 15 16 17 17 16 16 14 13 13 14 14 14 14 14 14 13 13 13 13 12 12
15 15 15 15 15 15 14 14 14 15 14 14 14 14 15 16 17 16 15 13 13 13 13 13 14 14 14 14 13 13 13 12 12
Height
827 829 831 833 835 836 838 840 841 843 844 845 846 847 848 849 850 852 853 854 855 856 857 858 858 859 860 861 861 861 861 862 863
828 830 833 835 837 838 840 841 843 845 846 848 849 850 851 853 854 854 856 857 858 859 860 861 862 863 863 864 864 864 865 865 866
830 833 835 837 839 840 841 843 845 847 848 850 851 852 853 855 856 857 858 859 860 862 863 864 865 866 866 867 867 868 868 869 870
832 834 837 839 840 842 843 845 846 848 850 852 853 854 855 857 859 860 861 862 863 865 866 867 868 869 870 870 871 872 872 873 874
833 835 838 840 842 844 846 847 848 850 852 853 855 856 857 859 861 862 863 864 866 867 868 869 871 871 873 874 874 874 875 877 877
833 836 838 840 843 845 847 848 850 852 854 855 856 858 860 861 863 863 865 866 868 869 871 871 873 874 875 876 876 877 879 880 881
833 836 838 841 843 846 848 849 851 853 855 856 857 858 860 862 863 863 866 868 870 871 873 874 875 876 877 878 879 880 881 883 883
832 835 838 841 843 846 848 851 853 853 855 857 858 859 860 862 864 864 867 870 871 873 874 875 877 879 879 880 881 883 884 885 886
831 833 837 840 843 846 848 851 852 853 855 857 858 858 860 861 864 864 868 870 872 874 876 878 880 881 881 882 884 886 886 887 889
829 832 836 839 842 844 847 849 851 853 855 857 858 859 861 861 864 865 868 871 873 875 878 879 881 882 883 884 886 887 889 889 890
826 830 834 838 841 843 846 848 851 853 855 857 858 860 862 863 863 865 868 871 874 876 879 880 882 883 885 887 888 889 890 891 893
825 829 832 835 838 843 845 848 851 853 855 857 858 861 863 862 863 865 867 871 875 877 879 881 882 884 886 888 890 891 891 893 894
823 826 830 833 836 840 844 847 849 852 855 857 859 861 863 865 865 867 869 872 875 877 879 881 882 884 887 890 891 891 892 893 895
820 823 827 830 835 838 842 846 848 850 854 857 860 861 863 865 867 868 870 873 875 877 878 881 883 885 887 889 891 892 893 894 895
817 821 824 827 833 837 840 844 847 850 852 857 861 862 863 864 866 868 870 872 875 877 878 880 883 885 887 889 891 892 893 894 896
813 817 822 825 829 834 838 841 845 849 851 856 860 862 863 864 865 867 869 872 873 876 878 880 881 884 887 888 890 891 892 894 895
808 812 818 822 826 830 835 838 841 845 848 851 857 861 864 863 864 866 868 870 872 874 876 879 881 883 884 886 888 890 892 894 895
805 807 813 819 823 825 830 835 837 841 845 847 851 855 855 859 861 864 866 868 870 872 874 877 879 881 882 885 887 889 890 893 894
801 803 808 815 819 821 826 830 834 837 841 844 846 848 849 851 857 860 863 865 868 869 871 874 876 878 881 883 884 887 889 891 893
797 798 803 809 815 818 822 826 830 834 837 839 842 846 848 849 850 853 859 862 864 866 868 870 872 875 878 879 882 884 886 888 891
Wind_Speed
16 19 18 16 16 14 14 12 12 12 13 14 15 17 14 12 13 15 13 16 19 21 20 20 20 18 18 19 19 19 20 21 21
15 19 17 16 14 13 12 12 11 10 10 12 14 15 13 12 11 13 13 17 19 20 19 17 18 17 18 18 18 19 21 20 22
16 17 16 15 14 13 12 12 11 9 10 10 10 13 14 12 13 13 13 17 19 18 17 16 16 17 18 18 19 20 16 24 24
14 15 13 13 13 10 12 12 11 10 9 8 9 11 9 11 11 13 13 15 17 17 16 16 17 18 18 17 19 19 23 23 22
12 13 14 13 13 10 12 13 12 11 8 7 9 11 10 9 10 11 11 14 16 16 15 16 16 16 15 17 16 17 22 21 21
13 13 15 15 8 6 12 15 13 11 9 7 10 12 5 8 7 10 9 13 16 15 15 15 15 15 16 14 17 22 21 20 19
13 15 16 15 9 8 14 16 14 11 8 8 11 5 8 8 8 11 11 11 12 14 14 14 14 16 16 15 20 20 19 19 19
13 15 20 13 12 11 14 16 13 11 9 8 6 9 9 9 8 9 10 15 14 15 14 14 15 15 14 20 20 19 17 18 18
16 18 18 15 14 13 14 15 13 10 8 8 8 9 8 8 8 9 13 20 19 15 14 13 15 14 19 20 18 16 16 17 16
18 19 20 18 15 15 15 14 13 11 9 7 8 10 8 6 8 11 13 19 18 16 13 13 15 15 17 17 16 16 15 15 16
16 20 21 17 15 14 14 14 14 12 10 9 10 10 6 8 7 13 15 22 17 14 12 13 14 18 17 15 14 14 14 14 14
18 20 18 15 19 14 14 13 13 12 11 10 10 11 7 5 7 13 21 20 15 13 13 13 14 18 15 13 13 13 14 14 12
21 21 17 17 22 19 14 14 14 13 11 10 9 8 7 7 11 17 20 18 15 13 12 13 13 18 16 12 11 12 13 14 12
23 20 20 23 23 21 16 15 15 14 12 10 8 8 8 9 9 13 15 13 14 12 13 14 13 16 15 14 12 11 12 13 13
25 22 20 24 21 18 17 16 16 15 14 11 9 7 6 7 8 10 13 11 13 12 12 17 14 14 14 15 13 12 12 13 12
26 24 25 24 21 19 19 19 19 17 16 13 9 8 4 4 6 6 12 13 14 13 14 13 14 17 17 15 12 12 13 13 13
28 25 24 24 23 22 22 23 21 19 21 13 13 4 4 7 8 8 8 11 13 12 13 14 14 15 18 20 15 11 14 14 13
29 27 25 25 24 23 24 25 24 20 20 16 10 3 4 10 11 12 10 11 14 14 14 15 15 16 16 19 17 13 12 15 14
30 28 28 27 25 24 25 25 25 21 20 16 18 5 2 5 4 13 13 12 13 16 20 17 18 21 15 18 20 18 14 14 14
32 30 29 28 27 24 25 26 26 24 22 21 14 10 4 4 3 6 12 12 15 19 16 20 22 23 22 19 21 19 18 16 16
Wind_Direction
159 149 152 143 140 136 127 127 126 121 114 111 114 115 104 83 99 107 114 113 109 103 99 96 92 89 88 88 86 85 83 85 81
158 159 150 145 142 139 132 127 123 120 124 120 118 120 96 109 104 116 111 116 110 104 99 95 93 93 97 92 88 89 91 90 86
151 158 152 149 145 141 137 132 128 122 122 129 129 125 106 104 106 107 115 118 110 104 99 95 96 101 97 92 97 97 95 89 85
153 158 160 155 148 145 145 140 131 130 127 133 140 142 122 113 107 105 113 117 110 106 102 97 105 104 100 99 98 98 91 88 83
171 167 166 162 153 143 154 147 142 133 126 132 151 150 129 126 121 120 120 123 113 110 107 108 111 109 104 109 103 111 97 89 84
175 166 174 163 160 170 166 154 154 141 127 123 152 146 165 155 152 140 141 132 116 114 115 115 114 111 115 107 115 103 95 91 89
182 178 177 169 183 182 168 161 158 145 140 127 134 159 169 166 172 144 148 140 125 124 124 119 120 118 118 116 107 101 97 94 91
165 168 175 169 168 162 166 165 164 185 160 161 166 161 160 164 171 151 175 160 145 136 130 126 127 123 126 118 109 104 101 96 94
190 181 175 169 174 174 173 174 180 176 168 170 166 172 164 160 167 167 168 160 147 140 137 133 134 132 125 115 111 106 103 101 98
196 177 186 184 184 176 179 182 177 177 173 166 166 168 158 141 147 151 169 161 147 143 139 141 143 145 127 119 116 111 106 105 106
193 184 186 180 178 177 181 181 177 175 169 160 162 146 157 155 159 172 173 155 147 144 145 152 154 144 130 127 120 116 110 110 110
179 187 184 175 171 174 179 179 180 176 172 163 168 160 157 127 143 161 156 149 148 148 151 156 160 148 137 131 127 123 119 115 114
180 186 178 181 178 163 175 178 183 180 174 171 170 172 161 146 140 144 151 151 153 155 161 162 175 151 139 136 135 132 130 130 126
184 178 181 179 176 167 170 180 186 178 182 169 158 171 179 162 159 166 158 160 156 161 160 167 161 159 153 150 149 141 143 141 138
186 185 180 180 175 179 179 184 191 181 174 151 170 163 172 185 183 185 172 173 170 161 165 174 177 174 168 161 156 154 155 154 149
188 189 189 184 186 188 190 189 189 186 169 153 157 156 156 200 204 192 190 186 178 179 168 177 190 183 189 179 173 166 166 166 161
187 187 189 189 189 190 191 187 183 185 176 177 165 177 200 206 204 209 200 199 188 195 184 194 189 191 197 196 193 183 175 175 174
190 186 188 189 191 188 189 187 185 182 183 192 177 172 205 168 208 206 204 202 211 194 206 205 205 190 202 201 203 198 188 185 187
196 187 187 191 194 190 190 188 191 182 184 198 207 211 199 186 155 201 202 207 212 217 207 207 213 204 210 208 216 209 203 195 199
196 189 189 192 195 193 189 190 193 194 189 192 187 192 212 190 272 170 196 207 222 218 208 222 224 214 218 221 216 223 215 208 204